G6LTT Weather Reports


Display with metric or nautical units.
time (UTC)temp
F
wind
direction
speed
MPH
gust
MPH
rain 1hr
in
rain 24hr
in
rain mn
in
humidity
%
barometer
mb
20260510124503 53 38 3.0 8.0 0.00 0.00 0.00 65 1045.2
20260510123603 53 40 4.0 14.0 0.00 0.00 0.00 64 1045.2
20260510122703 53 49 8.0 16.0 0.00 0.00 0.00 66 1045.4
20260510121803 53 51 2.0 15.0 0.00 0.00 0.00 67 1045.4
20260510120903 53 49 2.0 14.0 0.00 0.00 0.00 67 1045.3
20260510120003 54 53 3.0 15.0 0.00 0.00 0.00 65 1045.7
20260510115403 53 58 8.0 15.0 0.00 0.00 0.00 66 1045.3
20260510114503 53 44 4.0 14.0 0.00 0.00 0.00 69 1045.6
20260510113603 53 59 4.0 11.0 0.00 0.00 0.00 70 1045.6
20260510112703 54 51 2.0 14.0 0.00 0.00 0.00 67 1045.7
20260510111803 54 57 3.0 11.0 0.00 0.00 0.00 68 1045.8
20260510110903 54 48 4.0 14.0 0.00 0.00 0.00 66 1045.8
20260510110003 53 32 2.0 11.0 0.00 0.00 0.00 68 1046.0
20260510105617 53 56 7.0 11.0 0.00 0.00 0.00 67 1046.1
20260510104503 53 49 6.0 13.0 0.00 0.00 0.00 68 1046.0
20260510103603 53 42 5.0 18.0 0.00 0.00 0.00 67 1046.1
20260510102703 53 44 2.0 11.0 0.00 0.00 0.00 66 1045.9
20260510101803 53 47 5.0 13.0 0.00 0.00 0.00 65 1046.2
20260510100903 53 53 5.0 15.0 0.00 0.00 0.00 66 1045.9
20260510100003 55 39 7.0 21.0 0.00 0.00 0.00 63 1046.1
20260510095403 55 64 4.0 21.0 0.00 0.00 0.00 62 1046.2
20260510094503 54 63 4.0 13.0 0.00 0.00 0.00 67 1045.8
20260510093603 54 42 4.0 14.0 0.00 0.00 0.00 66 1045.9
20260510092703 53 59 5.0 15.0 0.00 0.00 0.00 68 1046.1
20260510091803 52 52 5.0 16.0 0.00 0.00 0.00 70 1046.2
20260510090903 52 56 4.0 16.0 0.00 0.00 0.00 71 1046.3
20260510090003 52 46 4.0 13.0 0.00 0.00 0.00 72 1046.4
20260510085403 52 42 3.0 13.0 0.00 0.00 0.00 72 1046.5
20260510084715 52 71 4.0 11.0 0.00 0.00 0.00 73 1046.4
20260510083603 52 48 2.0 13.0 0.00 0.00 0.00 73 1046.5
20260510082703 51 53 5.0 13.0 0.00 0.00 0.00 74 1046.8
20260510082012 51 41 5.0 14.0 0.00 0.00 0.00 75 1046.6
20260510080903 51 54 3.0 13.0 0.00 0.00 0.00 75 1046.6
20260510080003 51 45 2.0 13.0 0.00 0.00 0.00 77 1046.4
20260510075403 51 38 3.0 11.0 0.00 0.00 0.00 77 1046.5
20260510074503 50 52 2.0 11.0 0.00 0.00 0.00 78 1046.6
20260510073603 50 54 5.0 14.0 0.00 0.00 0.00 78 1046.7
20260510072703 50 30 4.0 15.0 0.00 0.00 0.00 79 1046.6
20260510071803 50 65 3.0 11.0 0.00 0.00 0.00 80 1046.7
20260510070903 50 43 2.0 11.0 0.00 0.00 0.00 80 1046.6
20260510070003 49 26 6.0 11.0 0.00 0.00 0.00 80 1046.4
20260510065403 49 40 4.0 11.0 0.00 0.00 0.00 81 1046.4
20260510064503 49 69 2.0 13.0 0.00 0.00 0.00 82 1046.3
20260510063814 49 59 2.0 11.0 0.00 0.00 0.00 82 1046.5
20260510062703 49 60 2.0 11.0 0.00 0.00 0.00 83 1046.4
20260510061803 49 36 3.0 13.0 0.00 0.00 0.00 83 1046.3
20260510060903 49 50 3.0 11.0 0.00 0.00 0.00 84 1046.2
20260510060003 48 55 4.0 11.0 0.00 0.00 0.00 85 1046.1
20260510055403 48 48 2.0 13.0 0.00 0.00 0.00 85 1046.1
20260510054503 48 48 1.0 9.0 0.00 0.00 0.00 86 1046.1
20260510053603 48 60 3.0 11.0 0.00 0.00 0.00 86 1046.2
20260510052703 48 47 4.0 14.0 0.00 0.00 0.00 86 1046.0
20260510051803 48 45 4.0 11.0 0.00 0.00 0.00 87 1046.1
20260510050903 48 40 2.0 11.0 0.00 0.00 0.00 87 1046.0
20260510050003 48 37 3.0 11.0 0.00 0.00 0.00 87 1045.9
20260510045403 48 52 2.0 11.0 0.00 0.00 0.00 87 1046.1
20260510044504 47 47 2.0 11.0 0.00 0.00 0.00 87 1046.0
20260510043815 47 47 3.0 11.0 0.00 0.00 0.00 87 1046.1
20260510042703 47 64 3.0 8.0 0.00 0.00 0.00 87 1046.2
20260510041803 47 53 2.0 11.0 0.00 0.00 0.00 87 1046.1
20260510040903 47 45 5.0 11.0 0.00 0.00 0.00 87 1046.1
20260510040214 47 56 4.0 7.0 0.00 0.00 0.00 87 1046.2
20260510035616 47 63 4.0 9.0 0.00 0.00 0.00 87 1046.1
20260510034713 47 44 3.0 14.0 0.00 0.00 0.00 87 1046.4
20260510033816 47 46 3.0 9.0 0.00 0.00 0.00 87 1046.4
20260510032703 47 48 3.0 9.0 0.00 0.00 0.00 87 1046.5
20260510031803 47 59 3.0 7.0 0.00 0.00 0.00 87 1046.7
20260510030903 47 51 1.0 6.0 0.00 0.00 0.00 87 1046.6
20260510030215 47 48 2.0 8.0 0.00 0.00 0.00 87 1046.6
20260510025403 48 48 2.0 11.0 0.00 0.00 0.00 87 1046.6
20260510024714 48 37 0.0 11.0 0.00 0.00 0.00 87 1046.6
20260510023603 48 53 3.0 13.0 0.00 0.00 0.00 87 1046.5
20260510022914 48 56 6.0 13.0 0.00 0.00 0.00 88 1046.4
20260510021803 47 44 4.0 9.0 0.00 0.00 0.00 88 1046.5
20260510020903 47 43 4.0 11.0 0.00 0.00 0.00 88 1046.7
20260510020003 47 44 2.0 9.0 0.00 0.00 0.00 88 1046.7
20260510015403 48 50 4.0 9.0 0.00 0.00 0.00 88 1046.9
20260510014503 48 36 3.0 7.0 0.00 0.00 0.00 88 1046.8
20260510013603 48 39 2.0 8.0 0.00 0.00 0.00 87 1046.8
20260510012703 48 54 2.0 8.0 0.00 0.00 0.00 87 1046.6
20260510011803 48 56 2.0 8.0 0.00 0.00 0.00 87 1046.6
20260510011114 48 52 3.0 8.0 0.00 0.00 0.00 86 1046.8
20260510010003 48 35 2.0 7.0 0.00 0.00 0.00 85 1046.5
20260510005403 48 33 2.0 7.0 0.00 0.00 0.00 84 1046.7
20260510004715 48 51 3.0 8.0 0.00 0.00 0.00 83 1046.5
20260510003603 49 53 2.0 8.0 0.00 0.00 0.00 81 1046.7
20260510002703 49 46 2.0 8.0 0.00 0.00 0.00 78 1046.5
20260510001803 49 47 2.0 6.0 0.00 0.00 0.00 73 1046.7
20260510000903 49 86 2.0 11.0 0.00 0.00 0.00 70 1046.7
20260510000003 50 62 3.0 11.0 0.00 0.00 0.00 67 1046.6
20260509235403 51 51 3.0 8.0 0.00 0.00 0.00 65 1046.7
20260509234503 51 59 2.0 11.0 0.00 0.00 0.00 64 1046.8
20260509233603 52 54 2.0 6.0 0.00 0.00 0.00 62 1046.9
20260509232703 52 51 4.0 6.0 0.00 0.00 0.00 63 1046.8
20260509231803 53 55 2.0 9.0 0.00 0.00 0.00 63 1046.8
20260509230903 53 56 3.0 8.0 0.00 0.00 0.00 61 1046.7
20260509230003 53 45 4.0 7.0 0.00 0.00 0.00 60 1046.8
20260509225614 53 46 3.0 6.0 0.00 0.00 0.00 60 1046.7
20260509224503 54 53 2.0 8.0 0.00 0.00 0.00 59 1046.7
20260509223603 54 62 4.0 7.0 0.00 0.00 0.00 58 1046.6
20260509222703 54 51 1.0 6.0 0.00 0.00 0.00 56 1046.7
20260509221803 55 53 2.0 6.0 0.00 0.00 0.00 55 1046.6
20260509220903 55 49 2.0 7.0 0.00 0.00 0.00 54 1046.6
20260509220003 55 33 2.0 6.0 0.00 0.00 0.00 52 1046.5
20260509215403 56 53 3.0 6.0 0.00 0.00 0.00 52 1046.6
20260509214503 56 56 1.0 9.0 0.00 0.00 0.00 51 1046.6
20260509213603 56 41 3.0 7.0 0.00 0.00 0.00 51 1046.5
20260509212917 56 41 0.0 6.0 0.00 0.00 0.00 51 1046.5
20260509211803 56 61 1.0 4.0 0.00 0.00 0.00 50 1046.0
20260509211117 57 58 1.0 4.0 0.00 0.00 0.00 49 1046.0
20260509210003 57 58 2.0 4.0 0.00 0.00 0.00 48 1046.1
20260509205403 57 52 2.0 4.0 0.00 0.00 0.00 47 1046.2
20260509204503 57 43 0.0 4.0 0.00 0.00 0.00 46 1046.2
20260509203603 58 51 1.0 2.0 0.00 0.00 0.00 46 1046.1
20260509202912 58 49 0.0 4.0 0.00 0.00 0.00 45 1045.9
20260509201803 58 35 0.0 4.0 0.00 0.00 0.00 44 1045.8
20260509200903 58 347 1.0 4.0 0.00 0.00 0.00 43 1046.0
20260509200003 58 71 0.0 2.0 0.00 0.00 0.00 43 1045.7
20260509195616 58 32 0.0 2.0 0.00 0.00 0.00 42 1045.8
20260509194713 59 254 0.0 4.0 0.00 0.00 0.00 41 1045.9
20260509193603 59 58 0.0 2.0 0.00 0.00 0.00 40 1045.5
20260509192703 60 38 1.0 4.0 0.00 0.00 0.00 39 1045.5
20260509191803 60 36 1.0 4.0 0.00 0.00 0.00 40 1045.3
20260509191113 61 47 0.0 4.0 0.00 0.00 0.00 40 1045.4
20260509190003 61 49 0.0 8.0 0.00 0.00 0.00 39 1045.4
20260509185403 61 40 2.0 6.0 0.00 0.00 0.00 39 1045.3
20260509184714 62 17 2.0 4.0 0.00 0.00 0.00 38 1045.4
20260509183603 63 5 1.0 4.0 0.00 0.00 0.00 38 1045.3
20260509182703 63 21 1.0 7.0 0.00 0.00 0.00 40 1045.3
20260509181803 64 45 1.0 7.0 0.00 0.00 0.00 40 1045.0
20260509180903 64 95 2.0 7.0 0.00 0.00 0.00 39 1045.0
20260509180003 64 133 1.0 4.0 0.00 0.00 0.00 40 1045.0
20260509175612 65 49 1.0 4.0 0.00 0.00 0.00 39 1044.8
20260509174503 65 41 2.0 11.0 0.00 0.00 0.00 40 1044.8
20260509173603 66 40 4.0 11.0 0.00 0.00 0.00 39 1044.8
20260509172703 66 71 2.0 8.0 0.00 0.00 0.00 40 1044.7
20260509171803 67 356 2.0 11.0 0.00 0.00 0.00 40 1044.9
20260509170903 66 53 2.0 11.0 0.00 0.00 0.00 40 1044.7
20260509170003 67 52 2.0 11.0 0.00 0.00 0.00 38 1045.0
20260509165403 68 72 3.0 11.0 0.00 0.00 0.00 38 1044.9
20260509164503 69 126 2.0 8.0 0.00 0.00 0.00 37 1044.7
20260509163603 69 61 2.0 6.0 0.00 0.00 0.00 36 1044.6
20260509162703 69 81 2.0 9.0 0.00 0.00 0.00 35 1044.7
20260509161803 69 174 2.0 9.0 0.00 0.00 0.00 35 1044.7
20260509160903 69 65 2.0 8.0 0.00 0.00 0.00 34 1044.8
20260509160003 71 77 2.0 7.0 0.00 0.00 0.00 33 1044.9
20260509155403 71 160 0.0 6.0 0.00 0.00 0.00 32 1044.8
20260509154503 71 216 2.0 6.0 0.00 0.00 0.00 31 1044.9
20260509153813 71 147 1.0 7.0 0.00 0.00 0.00 31 1044.9
20260509152703 71 200 2.0 7.0 0.00 0.00 0.00 32 1045.0
20260509151803 71 202 2.0 6.0 0.00 0.00 0.00 32 1044.7
20260509150903 71 120 2.0 6.0 0.00 0.00 0.00 33 1044.8
20260509150003 71 61 1.0 4.0 0.00 0.00 0.00 33 1044.9
20260509145403 71 103 2.0 6.0 0.00 0.00 0.00 33 1044.7
20260509144503 71 59 4.0 9.0 0.00 0.00 0.00 32 1044.6
20260509143814 72 136 1.0 4.0 0.00 0.00 0.00 32 1044.8
20260509142703 71 251 2.0 6.0 0.00 0.00 0.00 32 1044.7
20260509141803 69 75 2.0 7.0 0.00 0.00 0.00 33 1044.6
20260509140903 71 93 4.0 7.0 0.00 0.00 0.00 33 1044.7
20260509140003 70 113 2.0 6.0 0.00 0.00 0.00 34 1044.9
20260509135615 70 86 2.0 7.0 0.00 0.00 0.00 35 1044.9
20260509134503 69 51 2.0 9.0 0.00 0.00 0.00 33 1044.9
20260509133603 71 70 6.0 9.0 0.00 0.00 0.00 36 1045.0
20260509132703 70 106 1.0 6.0 0.00 0.00 0.00 35 1045.0
20260509131803 71 83 2.0 6.0 0.00 0.00 0.00 35 1045.0
20260509130903 70 67 1.0 11.0 0.00 0.00 0.00 37 1045.2
20260509130003 70 65 4.0 11.0 0.00 0.00 0.00 37 1045.1
20260509125403 69 80 1.0 8.0 0.00 0.00 0.00 38 1045.3